Tracking 17145 objects as of 23-May-2015
HD Live streaming from Space Station

ATLAS CENTAUR DEB

Track ATLAS CENTAUR DEB now!
ATLAS CENTAUR DEB is classified as:


NORAD ID: 25253
Int'l Code: 1978-068C
Perigee: 873.9 km
Apogee: 35,587.1 km
Inclination: 21.8 °
Period: 640.0 minutes
Semi major axis: 24601 km
RCS: 0.1092 m2 (medium)
Launch date: June 29, 1978
Source: United States (US)

Note: This is SATELLITE DEBRIS
Your satellite tracking list
Your tracking list is empty





NASA's NSSDC Master Catalog

Two Line Element Set (TLE):
1 25253U 78068C   15141.00279236 -.00000006  00000-0  85466-2 0  9995
2 25253 021.8420 303.3625 7055111 241.6034 029.0269 02.24988742146867

Source of the keplerian elements: AFSPC

N2YO: 317